Regional Weather Roundup
Issued by NWS

Home | Current Version | Previous Version | Graphics & Text | Print | Product List | Glossary On
Versions: 1 2 3 4 5 6 7 8 9 10 11 12 13 14 15 16 17 18 19 20 21 22 23 24 25 26 27 28 29 30 31 32 33 34 35 36 37 38 39 40 41 42 43 44 45 46 47 48 49 50
000
ASUS43 KMKX 230611
RWRWI

WISCONSIN REGIONAL WEATHER ROUNDUP
NATIONAL WEATHER SERVICE MILWAUKEE/SULLIVAN WI
100 AM CDT THU OCT 23 2014

NOTE: "FAIR" INDICATES FEW OR NO CLOUDS BELOW 12,000 FEET WITH NO
SIGNIFICANT WEATHER AND/OR OBSTRUCTIONS TO VISIBILITY.

WIZ001-002-006>008-014>016-023>028-230700-
NORTHWEST WISCONSIN

CITY           SKY/WX    TMP DP  RH WIND       PRES   REMARKS
SUPERIOR ARPT  PTCLDY    51  38  61 S10       30.00F
6HR MIN TEMP:  46; 6HR MAX TEMP:  55;

ASHLAND        CLOUDY    53  38  56 S9        30.05F
6HR MIN TEMP:  51; 6HR MAX TEMP:  55;

HAYWARD        CLOUDY    49  40  71 S7        30.07F
6HR MIN TEMP:  49; 6HR MAX TEMP:  53; 6HR PCP: TRACE;

SIREN          CLOUDY    53  38  55 S12G17    30.03F
6HR MIN TEMP:  53; 6HR MAX TEMP:  55;

CUMBERLAND     CLOUDY    46  37  71 SE8       30.06F
RICE LAKE      CLOUDY    48  41  76 SE8       30.08F
6HR MIN TEMP:  48; 6HR MAX TEMP:  55;

CHETEK         CLOUDY    47  43  85 E8        30.08F
6HR MIN TEMP:  47; 6HR MAX TEMP:  55; 6HR PCP:  0.01;

LADYSMITH      CLOUDY    50  39  66 SE9       30.11F
6HR MIN TEMP:  48; 6HR MAX TEMP:  53; 6HR PCP:  0.06;

EAU CLAIRE     CLOUDY    51  40  65 S13       30.08F
6HR MIN TEMP:  51; 6HR MAX TEMP:  56; 6HR PCP:  0.03;

MENOMONIE      CLOUDY    50  42  73 SE7       30.07F
6HR MIN TEMP:  49; 6HR MAX TEMP:  57; 6HR PCP:  0.04;

NEW RICHMOND   MOCLDY    51  38  61 SE7       30.04F
6HR MIN TEMP:  51; 6HR MAX TEMP:  54;

OSCEOLA        CLOUDY    53  40  61 SE8       30.06S
6HR MIN TEMP:  53; 6HR MAX TEMP:  55;

$$

WIZ003>005-009-010-017-018-230700-
NORTH CENTRAL WISCONSIN

CITY           SKY/WX    TMP DP  RH WIND       PRES   REMARKS
MANITOWISH WTR PTCLDY    44  36  72 S8G17     30.10F
6HR MIN TEMP:  44; 6HR MAX TEMP:  46;

ARBOR VITAE    MOCLDY    47  37  70 S12G18    30.11F
6HR MIN TEMP:  45; 6HR MAX TEMP:  49;

WOODRUFF       MOCLDY    47  37  70 S12G18    30.11F
6HR MIN TEMP:  45; 6HR MAX TEMP:  49;

RHINELANDER    MOCLDY    42  36  79 SE6       30.15F
6HR MIN TEMP:  41; 6HR MAX TEMP:  46;

EAGLE RIVER    MOCLDY    40  35  81 S5        30.13F
6HR MIN TEMP:  39; 6HR MAX TEMP:  44;

LAND O LAKES   MOCLDY    43  36  75 S8        30.13S
6HR MIN TEMP:  42; 6HR MAX TEMP:  45;

PHILLIPS       CLOUDY    47  36  64 S7        30.12R
6HR MIN TEMP:  46; 6HR MAX TEMP:  49;

TOMAHAWK       MOCLDY    42  36  79 CALM      30.14F
6HR MIN TEMP:  42; 6HR MAX TEMP:  44;

MEDFORD        MOCLDY    44  36  72 SE8       30.13F
6HR MIN TEMP:  43; 6HR MAX TEMP:  47;

MERRILL        PTCLDY    40  38  90 SE5       30.15F
6HR MIN TEMP:  40; 6HR MAX TEMP:  47;

$$

WIZ029-030-035-036-043>047-230700-
CENTRAL WISCONSIN

CITY           SKY/WX    TMP DP  RH WIND       PRES   REMARKS
WAUSAU         CLEAR     39  36  89 SE6       30.16F WCI  35
6HR MIN TEMP:  37; 6HR MAX TEMP:  48;

MOSINEE        MOCLDY    37  37 100 SE8       30.17F WCI  31
MARSHFIELD     MOCLDY    45  36  70 S7        30.14F
6HR MIN TEMP:  44; 6HR MAX TEMP:  47;

STEVENS POINT  PTCLDY    37  35  94 SE5       30.18F WCI  33
6HR MIN TEMP:  37; 6HR MAX TEMP:  46; 6HR PCP:  0.01;

WAUPACA        CLEAR     39  37  93 SE5       30.21S
6HR MIN TEMP:  39; 6HR MAX TEMP:  47;

WAUTOMA        PTCLDY    38  37  96 CALM      30.20F
6HR MIN TEMP:  38; 6HR MAX TEMP:  43;

WISC RAPIDS    CLEAR     41  36  82 SE7       30.18F
6HR MIN TEMP:  40; 6HR MAX TEMP:  48;

CAMP DOUGLAS   CLEAR     38  37  98 SE2       30.15F
6HR MIN TEMP:  35; 6HR MAX TEMP:  46;

$$

WIZ011>013-019>022-031-037>040-048>050-230700-
NORTHEAST WISCONSIN

CITY           SKY/WX    TMP DP  RH WIND       PRES   REMARKS
ANTIGO         PTCLDY    36  36 100 S8        30.18S FOG     WCI  29
6HR MIN TEMP:  35; 6HR MAX TEMP:  41;

SHAWANO        FOG       37  35  93 CALM      30.22S VSB 1
6HR MIN TEMP:  36; 6HR MAX TEMP:  44;

OCONTO         CLEAR     42  41  97 S5        30.22S
6HR MIN TEMP:  40; 6HR MAX TEMP:  42;

STURGEON BAY   CLEAR     39  36  87 S7        30.23F WCI  34
6HR MIN TEMP:  39; 6HR MAX TEMP:  39;

GREEN BAY      CLEAR     37  35  92 S3        30.23S FOG
6HR MIN TEMP:  35; 6HR MAX TEMP:  43;

MANITOWOC      CLEAR     37  36  96 CALM      30.25S
6HR MIN TEMP:  34; 6HR MAX TEMP:  44;

APPLETON       CLEAR     37  36  93 S6        30.22S WCI  33
CLINTONVILLE   FOG       34  32  93 CALM      30.21S VSB 1/2
OSHKOSH        CLEAR     38  36  92 SE5       30.21F WCI  34
6HR MIN TEMP:  37; 6HR MAX TEMP:  48;

$$

WIZ032>034-041-042-053>061-230700-
SOUTHWEST WISCONSIN

CITY           SKY/WX    TMP DP  RH WIND       PRES   REMARKS
LA CROSSE      CLOUDY    53  38  56 SW8       30.14R
6HR MIN TEMP:  53; 6HR MAX TEMP:  57;

SPARTA         MOCLDY    51  35  53 S7        30.14F
6HR MIN TEMP:  40; 6HR MAX TEMP:  51;

VIROQUA        CLOUDY    47  36  65 S9        30.14S
6HR MIN TEMP:  47; 6HR MAX TEMP:  49;

BOSCOBEL       MOCLDY    41  37  86 CALM      30.17F
6HR MIN TEMP:  38; 6HR MAX TEMP:  49;

PRAIRIE DU CHI MOCLDY    48  36  62 E5        30.14F
6HR MIN TEMP:  48; 6HR MAX TEMP:  52;

PLATTEVILLE    MOCLDY    43  35  74 SE7       30.18F
6HR MIN TEMP:  43; 6HR MAX TEMP:  50;

$$

WIZ056-057-062-063-064-067-068-230700-
SOUTH CENTRAL WISCONSIN

CITY           SKY/WX    TMP DP  RH WIND       PRES   REMARKS
REEDSBURG      CLEAR     44  35  70 CALM      30.17S
6HR MIN TEMP:  43; 6HR MAX TEMP:  50;

BARABOO/DELLS  CLEAR     43  34  69 S3        30.17F
6HR MIN TEMP:  41; 6HR MAX TEMP:  46;

LONE ROCK      PTCLDY    45  35  68 E9        30.18F
6HR MIN TEMP:  42; 6HR MAX TEMP:  50;

MINERAL POINT  PTCLDY    43  34  70 SE7       30.18F
MADISON        CLEAR     41  37  86 S8        30.21F
6HR MIN TEMP:  41; 6HR MAX TEMP:  50;

MIDDLETON      CLEAR     42  37  84 SE5       30.20F
6HR MIN TEMP:  37; 6HR MAX TEMP:  48;

WATERTOWN      CLEAR     36  36 100 CALM      30.22F
6HR MIN TEMP:  35; 6HR MAX TEMP:  46;

MONROE         PTCLDY    37  36  93 SE8       30.20S WCI  31
JANESVILLE     CLEAR     37  34  87 SE3       30.21F
$$

WIZ051-052-058>065-066-070>072-230700-
SOUTHEAST WISCONSIN

CITY           SKY/WX    TMP DP  RH WIND       PRES   REMARKS
MILWAUKEE      CLEAR     34  31  88 CALM      30.25F
6HR MIN TEMP:  34; 6HR MAX TEMP:  45;

WAUKESHA       CLEAR     36  34  93 CALM      30.24F
MILWAUKEE/TIMM CLEAR     32  32 100 CALM      30.25F FOG
RACINE         CLEAR     32  30  92 CALM      30.27F
6HR MIN TEMP:  32; 6HR MAX TEMP:  45;

BURLINGTON     FOG       28  28 100 CALM      30.24F VSB 1/2
6HR MIN TEMP:  27; 6HR MAX TEMP:  43;

KENOSHA        CLEAR     32  31  96 CALM      30.25F FOG
6HR MIN TEMP:  31; 6HR MAX TEMP:  44;

FOND DU LAC    CLEAR     38  35  89 S7        30.22F WCI  33
6HR MIN TEMP:  37; 6HR MAX TEMP:  46;

SHEBOYGAN      FOG       32  31  96 CALM      30.24F VSB 3/4
6HR MIN TEMP:  29; 6HR MAX TEMP:  43;

WEST BEND      CLEAR     34  32  93 SE3       30.23F
JUNEAU         CLEAR     36  35  95 SE8       30.23S FOG     WCI  30
6HR MIN TEMP:  36; 6HR MAX TEMP:  46;

$$

LSZ147-162-230700-
LAKE SUPERIOR

STATION/POSITION TIME  TEMP    WIND        PRES    WAVE
                       AIR SEA DIR/SP/G            HT/PER
                 (UTC) (F)     (DEG/KT/KT) (MB)    (FT/S)
W MID LAKE BUOY  0550   50 46  180/ 12/ 14 1018.5F   2/ 3
DEVILS ISLAND    0600   52     170/  7/  9 1017.5F
PORT WING        0500   54     180/  7/ 11 1016.9
SAXON HARBOR     0540   54     190/  7/ 17 1017.6S
$$

LMZ867-665-643>646-230700-
LAKE MICHIGAN




USA.gov is the U.S. government's official web portal to all federal, state and local government web resources and services.